Location: Caltech
(34.1382°N, 118.1253°W)
Time: 03:40:43
(UTC-07:00)

Lacrosse 5 - Visible Passes

Search period start: 30 March 2017 00:00
Search period end: 09 April 2017 00:00
Orbit: 716 x 723 km, 57.0° (Epoch: 26 March)

Date Brightness Start Highest point End Pass type
(mag) Time Alt. Az. Time Alt. Az. Time Alt. Az.
30 Mar 4.8 20:08:35 10° NW 20:09:38 11° NNW 20:10:40 10° NNW visible
06 Apr 4.5 22:35:57 10° N 22:36:56 14° N 22:36:56 14° N visible
07 Apr 4.3 21:44:02 10° N 21:45:47 12° NNE 21:45:47 12° NNE visible
07 Apr 5.0 23:24:58 10° NNW 23:25:00 10° NNW 23:25:00 10° NNW visible
08 Apr 4.2 22:32:14 10° NNW 22:33:53 19° N 22:33:53 19° N visible
